CFG2016 EDDF-KJFK

Flight info

Callsign CFG2016
Flight time N/A
Altitude 38000
Route OBOKA5G/25C OBOKA Z28 DIBIR DCT BUDIP DCT MIMVA L602 NALAX L46 GETNO DCT MIMKU DCT BILTO/M084F390 NATF IRLOK/N0486F400 N724A MIILS DCT ENE PARCH3
Aircraft A359/H-SDE2E3GHIJ3J4J5LM1ORWXY/LB1D1

Departure

Time 2026-04-17 13:33
Airport Frankfurt Main Airport (EDDF)

Arrival

Time N/A
Airport John F. Kennedy International Airport (KJFK)
Time Latitude Longitude Altitude Speed Heading
2026-04-17 13:00 50.04702 8.56159 362 ft 0 kts 340°
2026-04-17 13:22 50.04695 8.56162 369 ft 8 kts 328°
2026-04-17 13:22 50.04685 8.56171 369 ft 8 kts 337°
2026-04-17 13:23 50.04667 8.56182 366 ft 8 kts 333°
2026-04-17 13:23 50.04654 8.56194 367 ft 8 kts 325°
2026-04-17 13:23 50.04638 8.56212 368 ft 8 kts 315°
2026-04-17 13:23 50.04628 8.56230 369 ft 9 kts 288°
2026-04-17 13:24 50.04625 8.56245 363 ft 73 kts 267°
2026-04-17 13:27 50.04623 8.56230 367 ft 5 kts 260°
2026-04-17 13:27 50.04606 8.56114 366 ft 17 kts 256°
2026-04-17 13:27 50.04536 8.55929 369 ft 22 kts 211°
2026-04-17 13:28 50.04366 8.55869 366 ft 30 kts 181°
2026-04-17 13:28 50.04290 8.55884 365 ft 5 kts 166°
2026-04-17 13:28 50.04202 8.55919 361 ft 20 kts 165°
2026-04-17 13:28 50.04087 8.56053 363 ft 17 kts 102°
2026-04-17 13:29 50.04118 8.56246 365 ft 23 kts 71°
2026-04-17 13:29 50.04186 8.56526 364 ft 32 kts 69°
2026-04-17 13:29 50.04272 8.56884 368 ft 39 kts 70°
2026-04-17 13:29 50.04374 8.57311 371 ft 45 kts 70°
2026-04-17 13:30 50.04488 8.57802 373 ft 51 kts 70°
2026-04-17 13:30 50.04558 8.58090 372 ft 12 kts 69°
2026-04-17 13:30 50.04600 8.58262 377 ft 21 kts 69°
2026-04-17 13:30 50.04644 8.58487 375 ft 17 kts 97°
2026-04-17 13:31 50.04562 8.58607 376 ft 19 kts 156°
2026-04-17 13:31 50.04478 8.58565 376 ft 10 kts 244°
2026-04-17 13:31 50.04468 8.58510 376 ft 0 kts 251°
2026-04-17 13:32 50.04402 8.58198 374 ft 64 kts 252°
2026-04-17 13:32 50.04173 8.57233 375 ft 124 kts 250°
2026-04-17 13:32 50.03813 8.55718 362 ft 173 kts 251°
2026-04-17 13:32 50.03469 8.53910 939 ft 167 kts 258°
2026-04-17 13:33 50.03147 8.52150 1499 ft 176 kts 248°
2026-04-17 13:33 50.02821 8.50194 1904 ft 200 kts 264°
2026-04-17 13:33 50.02851 8.47976 2478 ft 217 kts 274°
2026-04-17 13:33 50.02997 8.45481 2895 ft 244 kts 274°
2026-04-17 13:34 50.02871 8.42778 3552 ft 255 kts 259°
2026-04-17 13:34 50.02545 8.40050 4337 ft 258 kts 258°
2026-04-17 13:34 50.02201 8.37297 5173 ft 261 kts 258°
2026-04-17 13:34 50.01859 8.34506 5975 ft 264 kts 258°
2026-04-17 13:35 50.01517 8.31683 6755 ft 268 kts 258°
2026-04-17 13:35 50.01273 8.28798 7490 ft 273 kts 270°
2026-04-17 13:35 50.01742 8.25933 8305 ft 276 kts 292°
2026-04-17 13:35 50.02545 8.23197 9146 ft 280 kts 294°
2026-04-17 13:36 50.03379 8.20450 9970 ft 283 kts 294°
2026-04-17 13:36 50.04214 8.17657 10728 ft 286 kts 294°
2026-04-17 13:36 50.05047 8.14833 11267 ft 299 kts 294°
2026-04-17 13:36 50.06023 8.11857 11589 ft 320 kts 302°
2026-04-17 13:37 50.07383 8.09016 12083 ft 332 kts 308°
2026-04-17 13:37 50.08854 8.06203 12809 ft 337 kts 308°
2026-04-17 13:37 50.10333 8.03372 13566 ft 340 kts 308°
2026-04-17 13:37 50.11830 8.00485 14320 ft 343 kts 308°
2026-04-17 13:38 50.13327 7.97581 14981 ft 346 kts 307°
2026-04-17 13:38 50.14843 7.94636 15618 ft 350 kts 307°
2026-04-17 13:38 50.16372 7.91661 16293 ft 353 kts 307°
2026-04-17 13:38 50.17913 7.88657 16946 ft 356 kts 307°
2026-04-17 13:39 50.19447 7.85660 17599 ft 360 kts 307°
2026-04-17 13:39 50.21014 7.82593 18282 ft 363 kts 307°
2026-04-17 13:39 50.22591 7.79503 18881 ft 367 kts 307°
2026-04-17 13:39 50.24188 7.76373 19470 ft 370 kts 307°
2026-04-17 13:40 50.26025 7.73534 19875 ft 375 kts 323°
2026-04-17 13:40 50.28336 7.71618 20005 ft 378 kts 334°
2026-04-17 13:40 50.30767 7.70023 20019 ft 380 kts 335°
2026-04-17 13:40 50.33219 7.68418 20166 ft 386 kts 335°
2026-04-17 13:41 50.35696 7.66764 20481 ft 396 kts 334°
2026-04-17 13:41 50.38239 7.65049 21064 ft 399 kts 334°
2026-04-17 13:41 50.40790 7.63312 21682 ft 402 kts 334°
2026-04-17 13:41 50.43366 7.61545 22285 ft 405 kts 334°
2026-04-17 13:42 50.45957 7.59764 22874 ft 409 kts 334°
2026-04-17 13:42 50.48572 7.57963 23452 ft 412 kts 334°
2026-04-17 13:42 50.51206 7.56147 23987 ft 415 kts 334°
2026-04-17 13:42 50.53825 7.54336 24492 ft 418 kts 334°
2026-04-17 13:43 50.56418 7.52282 25021 ft 418 kts 327°
2026-04-17 13:43 50.58884 7.49859 25546 ft 419 kts 325°
2026-04-17 13:43 50.61330 7.47351 26064 ft 420 kts 325°
2026-04-17 13:43 50.63783 7.44829 26587 ft 422 kts 325°
2026-04-17 13:44 50.66249 7.42294 27092 ft 425 kts 325°
2026-04-17 13:44 50.68734 7.39740 27585 ft 427 kts 325°
2026-04-17 13:44 50.71224 7.37172 28108 ft 429 kts 324°
2026-04-17 13:44 50.73578 7.34386 28569 ft 429 kts 317°
2026-04-17 13:45 50.75689 7.30976 29050 ft 430 kts 308°
2026-04-17 13:45 50.77493 7.27277 29519 ft 431 kts 306°
2026-04-17 13:45 50.79252 7.23422 29967 ft 433 kts 304°
2026-04-17 13:45 50.80983 7.19509 30398 ft 436 kts 304°
2026-04-17 13:46 50.82712 7.15559 30756 ft 438 kts 304°
2026-04-17 13:46 50.84452 7.11583 31117 ft 440 kts 304°
2026-04-17 13:46 50.86200 7.07604 31477 ft 441 kts 304°
2026-04-17 13:46 50.87961 7.03612 31832 ft 443 kts 304°
2026-04-17 13:47 50.89730 6.99609 32165 ft 445 kts 304°
2026-04-17 13:47 50.91512 6.95592 32476 ft 446 kts 304°
2026-04-17 13:47 50.93274 6.91610 32786 ft 448 kts 304°
2026-04-17 13:47 50.95063 6.87560 33085 ft 449 kts 304°
2026-04-17 13:48 50.96854 6.83496 33386 ft 451 kts 304°
2026-04-17 13:48 50.98657 6.79397 33690 ft 452 kts 304°
2026-04-17 13:48 51.00451 6.75314 34110 ft 451 kts 304°
2026-04-17 13:48 51.02238 6.71239 34486 ft 449 kts 304°
2026-04-17 13:49 51.04018 6.67175 34806 ft 448 kts 304°
2026-04-17 13:49 51.05798 6.63104 35095 ft 448 kts 304°
2026-04-17 13:49 51.07573 6.59038 35387 ft 447 kts 304°
2026-04-17 13:49 51.09318 6.55038 35682 ft 447 kts 304°
2026-04-17 13:50 51.11091 6.50976 35976 ft 446 kts 304°
2026-04-17 13:50 51.12851 6.46924 36257 ft 445 kts 304°
2026-04-17 13:50 51.14610 6.42863 36534 ft 445 kts 304°
2026-04-17 13:50 51.16368 6.38797 36811 ft 444 kts 304°
2026-04-17 13:51 51.18117 6.34746 37074 ft 443 kts 304°
2026-04-17 13:51 51.19859 6.30708 37352 ft 443 kts 304°
2026-04-17 13:51 51.21581 6.26712 37589 ft 442 kts 304°
2026-04-17 13:51 51.23318 6.22674 37816 ft 442 kts 304°
2026-04-17 13:52 51.25057 6.18628 38057 ft 442 kts 304°
2026-04-17 13:52 51.26794 6.14579 38195 ft 443 kts 304°
2026-04-17 13:52 51.30258 6.06399 38198 ft 444 kts 303°
2026-04-17 13:53 51.33625 5.98115 38197 ft 444 kts 302°
2026-04-17 13:53 51.37011 5.89925 38198 ft 444 kts 307°
2026-04-17 13:54 51.43550 5.79398 38201 ft 446 kts 316°
2026-04-17 13:55 51.49745 5.70626 38205 ft 447 kts 317°
2026-04-17 13:56 51.59810 5.56307 38210 ft 447 kts 316°
2026-04-17 13:56 51.63672 5.50766 38209 ft 447 kts 316°
2026-04-17 13:57 51.68312 5.44089 38204 ft 448 kts 316°
2026-04-17 13:58 51.76024 5.32953 38196 ft 448 kts 316°
2026-04-17 13:58 51.82225 5.23961 38189 ft 448 kts 316°
2026-04-17 13:59 51.89147 5.13882 38187 ft 449 kts 316°
2026-04-17 14:00 51.93783 5.07108 38189 ft 449 kts 315°
2026-04-17 14:00 51.98414 5.00320 38183 ft 449 kts 315°
2026-04-17 14:01 52.03043 4.93516 38187 ft 449 kts 315°
2026-04-17 14:01 52.07665 4.86703 38190 ft 449 kts 315°
2026-04-17 14:02 52.12283 4.79875 38190 ft 449 kts 315°